This demonstration page uses our WeatherBlox Daily Observations layout. Learn more.

Hourly Observations for December 17, 2016

Temp ( °F °C ) Dew Point ( °F °C ) Humidity (%) Winds ( mph kmh ) Pressure ( in mb ) Visibility ( mi km ) Precip ( " mm )
12:15 am 00:15 Cloudy with Light Snow 13 -10.6 9 -12.7 85 85 N 16 26 29.97 1015 10 16.0934 0 0
12:35 am 00:35 Cloudy with Light Snow 13 -10.8 8 -13.2 83 83 N 13 20 29.97 1015 10 16.0934 0 0
12:55 am 00:55 Windy with Snow Likely 12 -11.2 7 -14 80 80 N 21 33 29.97 1015 10 16.0934 0 0
1:15 am 01:15 Cloudy with Light Snow 11 -11.8 6 -14.5 81 81 N 18 30 30 1016 10 16.0934 0 0
1:35 am 01:35 Cloudy 10 -12.1 5 -14.9 80 80 N 16 26 30 1016 10 16.0934 0 0
1:55 am 01:55 Cloudy 10 -12.5 4 -15.4 79 79 N 20 31 30 1016 10 16.0934 0 0
2:15 am 02:15 Cloudy 9 -12.9 3 -16 78 78 NNW 22 35 30 1016 10 16.0934 0 0
2:35 am 02:35 Cloudy 8 -13.3 2 -16.7 76 76 NNW 18 30 30.03 1017 10 16.0934 0 0
2:55 am 02:55 Cloudy 8 -13.6 2 -16.7 78 78 N 15 24 30.03 1017 10 16.0934 0 0
3:15 am 03:15 Cloudy 7 -14.1 1 -17.5 76 76 N 17 28 30.06 1018 10 16.0934 0 0
3:35 am 03:35 Mostly Cloudy 6 -14.5 0 -18 75 75 N 16 26 30.03 1017 10 16.0934 0 0
3:55 am 03:55 Mostly Cloudy 6 -14.6 0 -17.8 77 77 N 18 30 30.09 1019 10 16.0934 0 0
4:15 am 04:15 Cloudy 5 -14.9 -1 -18.2 76 76 N 16 26 30.09 1019 10 16.0934 0 0
4:35 am 04:35 Cloudy 4 -15.4 -2 -19.1 74 74 N 21 33 30.06 1018 10 16.0934 0 0
4:55 am 04:55 Cloudy 4 -15.5 -2 -19 75 75 N 16 26 30.09 1019 10 16.0934 0 0
5:15 am 05:15 Cloudy 4 -15.7 -3 -19.4 73 73 N 15 24 30.12 1020 10 16.0934 0 0
5:35 am 05:35 Cloudy 4 -15.7 -3 -19.5 73 73 N 20 31 30.15 1021 10 16.0934 0 0
5:55 am 05:55 Cloudy 3 -16 -4 -19.9 72 72 N 17 28 30.18 1022 10 16.0934 0 0
6:15 am 06:15 Cloudy 4 -15.8 -3 -19.7 72 72 N 17 28 30.21 1023 10 16.0934 0 0
6:35 am 06:35 Cloudy 3 -16 -4 -20 72 72 N 13 20 30.24 1024 10 16.0934 0 0
6:55 am 06:55 Cloudy with Light Snow 3 -16.2 -4 -20.1 72 72 NNW 17 28 30.27 1025 7 11.26538 0 0
7:15 am 07:15 Cloudy with Light Snow 2 -16.5 -4 -20.1 74 74 N 18 30 30.27 1025 1.75 2.816345 0 0
7:35 am 07:35 Windy with Snow Likely 1 -17 -5 -20.3 76 76 N 20 31 30.24 1024 0.75 1.207005 0 0
7:55 am 07:55 Cloudy with Light Snow 1 -17 -4 -20 78 78 N 15 24 30.27 1025 1.25 2.011675 0 0
8:15 am 08:15 Cloudy with Light Snow 1 -17.3 -5 -20.5 76 76 N 17 28 30.3 1026 2.5 4.02335 0 0
8:35 am 08:35 Cloudy with Light Snow 1 -17.4 -5 -20.3 78 78 N 18 30 30.27 1025 1 1.60934 0 0
8:55 am 08:55 Cloudy with Light Snow 1 -17.3 -5 -20.4 77 77 N 18 30 30.3 1026 1.75 2.816345 0 0
9:15 am 09:15 Cloudy with Light Snow 1 -17.2 -5 -20.3 77 77 N 12 19 30.3 1026 2.5 4.02335 0 0
9:35 am 09:35 Cloudy with Light Snow 1 -17.2 -4 -20.2 78 78 N 14 22 30.3 1026 3 4.82802 0 0
9:55 am 09:55 Cloudy with Light Snow 1 -17.3 -5 -20.5 76 76 N 17 28 30.36 1028 2.5 4.02335 0 0
10:15 am 10:15 Cloudy with Haze 1 -17 -5 -20.5 74 74 NNW 17 28 30.39 1029 4 6.43736 0 0
10:35 am 10:35 Cloudy with Haze 1 -17 -5 -20.6 74 74 N 18 30 30.33 1027 5 8.0467 0 0
10:55 am 10:55 Cloudy 1 -17 -5 -20.7 73 73 NNW 21 33 30.42 1030 7 11.26538 0 0
11:15 am 11:15 Cloudy with Light Snow 1 -17 -6 -21.1 71 71 NNW 18 30 30.39 1029 7 11.26538 0 0
11:35 am 11:35 Cloudy 1 -17 -6 -21.3 69 69 N 20 31 30.39 1029 10 16.0934 0 0
11:55 am 11:55 Cloudy with Light Snow 1 -17 -6 -21.1 71 71 N 17 28 30.39 1029 7 11.26538 0 0
12:15 pm 12:15 Cloudy with Light Snow 2 -16.6 -6 -21.1 68 68 N 18 30 30.36 1028 10 16.0934 0 0
12:35 pm 12:35 Cloudy 2 -16.5 -6 -20.9 69 69 N 17 28 30.36 1028 10 16.0934 0 0
12:55 pm 12:55 Cloudy 2 -16.5 -6 -21.1 68 68 NNW 17 28 30.36 1028 10 16.0934 0 0
1:15 pm 13:15 Mostly Cloudy 2 -16.5 -6 -21.3 67 67 N 16 26 30.36 1028 10 16.0934 0 0
1:35 pm 13:35 Mostly Cloudy 2 -16.5 -6 -21.3 67 67 N 16 26 30.33 1027 10 16.0934 0 0
1:55 pm 13:55 Cloudy 2 -16.5 -6 -21.2 67 67 N 18 30 30.36 1028 10 16.0934 0 0
2:15 pm 14:15 Cloudy 2 -16.5 -6 -21.1 68 68 N 17 28 30.33 1027 10 16.0934 0 0
2:35 pm 14:35 Mostly Cloudy 3 -16.3 -6 -21.2 66 66 N 18 30 30.36 1028 10 16.0934 0 0
2:55 pm 14:55 Cloudy 2 -16.5 -7 -21.5 66 66 N 15 24 30.39 1029 10 16.0934 0 0
3:15 pm 15:15 Cloudy 3 -16.3 -7 -21.4 65 65 N 17 28 30.39 1029 10 16.0934 0 0
3:35 pm 15:35 Cloudy 3 -16.3 -6 -21.3 66 66 NNW 12 19 30.39 1029 10 16.0934 0 0
3:55 pm 15:55 Cloudy 3 -16.3 -6 -21.3 66 66 N 14 22 30.39 1029 10 16.0934 0 0
4:15 pm 16:15 Partly Cloudy 3 -16.2 -6 -21.2 66 66 NNW 12 19 30.39 1029 10 16.0934 0 0
4:35 pm 16:35 Sunny 3 -16.2 -6 -21.2 66 66 NNW 14 22 30.42 1030 10 16.0934 0 0
4:55 pm 16:55 Sunny 3 -16.3 -7 -21.5 64 64 NNW 12 19 30.42 1030 10 16.0934 0 0
5:15 pm 17:15 Clear 2 -16.7 -8 -22 64 64 NNW 14 22 30.45 1031 10 16.0934 0 0
5:35 pm 17:35 Clear 1 -17 -8 -22.2 64 64 NNW 10 17 30.48 1032 10 16.0934 0 0
5:55 pm 17:55 Clear 1 -17.5 -9 -22.5 65 65 NNW 9 15 30.48 1032 10 16.0934 0 0
6:15 pm 18:15 Clear -1 -18.3 -9 -23 67 67 NNW 8 13 30.48 1032 10 16.0934 0 0
6:35 pm 18:35 Clear -2 -18.7 -10 -23.4 67 67 NNW 8 13 30.53 1034 10 16.0934 0 0
6:55 pm 18:55 Clear -2 -19 -10 -23.6 67 67 NNW 6 9 30.53 1034 10 16.0934 0 0
7:15 pm 19:15 Clear -4 -19.9 -12 -24.2 69 69 NNW 6 9 30.53 1034 10 16.0934 0 0
7:35 pm 19:35 Clear -5 -20.5 -12 -24.6 70 70 NNW 5 7 30.53 1034 10 16.0934 0 0
7:55 pm 19:55 Clear -8 -22.2 -14 -25.8 73 73 NNW 5 7 30.59 1036 10 16.0934 0 0
8:15 pm 20:15 Clear -8 -22.2 -15 -25.9 72 72 NW 6 9 30.59 1036 10 16.0934 0 0
8:35 pm 20:35 Clear -10 -23.4 -17 -27 72 72 NW 7 11 30.59 1036 10 16.0934 0 0
8:55 pm 20:55 Clear -9 -22.6 -15 -26.3 72 72 NW 5 7 30.59 1036 10 16.0934 0 0
9:15 pm 21:15 Clear -10 -23.3 -17 -27 72 72 NW 6 9 30.59 1036 10 16.0934 0 0
9:35 pm 21:35 Clear -10 -23.6 -17 -27.2 72 72 WNW 5 7 30.65 1038 10 16.0934 0 0
9:55 pm 21:55 Clear -11 -23.7 -17 -27 74 74 NW 5 7 30.65 1038 10 16.0934 0 0
10:15 pm 22:15 Clear -10 -23.1 -16 -26.6 73 73 WNW 5 7 30.62 1037 10 16.0934 0 0
10:35 pm 22:35 Clear -9 -22.6 -15 -26.3 72 72 W 6 9 30.62 1037 10 16.0934 0 0
10:55 pm 22:55 Clear -8 -22.2 -15 -26.1 71 71 W 5 7 30.62 1037 10 16.0934 0 0
11:15 pm 23:15 Clear -8 -22.1 -15 -26 71 71 W 6 9 30.65 1038 10 16.0934 0 0
11:35 pm 23:35 Clear -8 -22 -15 -26.1 69 69 WNW 5 7 30.65 1038 10 16.0934 0 0
11:55 pm 23:55 Clear -9 -22.5 -16 -26.5 70 70 WNW 5 7 30.65 1038 10 16.0934 0 0

Powered by AerisWeather